Overview Statistics Trail Chart Weather Telemetry Raw packets
 

This is the latest recevied weather packets stored in our database for station/object W8RSN-13. If no packets are shown the sender has not sent any weather packets the latest 10 day(s).

<< 85 86 87 88 89 90 91 >>
Time Temp. Humidity Pressure Rain* Wind** Luminosity Snow
1788059674 29.44° C 47% 1012.3 hPa - - - -
1788059373 29.44° C 45% 1012.4 hPa - - - -
1788059073 30° C 45% 1012.1 hPa - - - -
1788058772 30° C 44% 1012.1 hPa - - - -
1788058471 30.56° C 42% 1012.1 hPa - - - -
1788058170 30.56° C 42% 1012 hPa - - - -
1788057869 30.56° C 42% 1012.1 hPa - - - -
1788057568 31.11° C 40% 1012 hPa - - - -
1788057269 32.22° C 35% 1012 hPa - - - -
1788056966 32.22° C 34% 1011.9 hPa - - - -
1788056665 32.22° C 34% 1012 hPa - - - -
1788056364 32.22° C 34% 1011.9 hPa - - - -
1788056064 32.22° C 34% 1011.7 hPa - - - -
1788055763 32.78° C 33% 1011.9 hPa - - - -
1788055462 33.33° C 32% 1011.8 hPa - - - -
1788055161 33.33° C 31% 1011.8 hPa - - - -
1788054860 33.89° C 31% 1011.7 hPa - - - -
1788054559 33.89° C 30% 1011.6 hPa - - - -
1788054258 33.89° C 30% 1012.1 hPa - - - -
1788053957 34.44° C 30% 1011.7 hPa - - - -
1788053656 34.44° C 29% 1011.9 hPa - - - -
1788053356 34.44° C 29% 1011.6 hPa - - - -
1788053075 34.44° C 28% 1011.9 hPa - - - -
1788052774 34.44° C 28% 1011.8 hPa - - - -
1788052473 34.44° C 29% 1011.9 hPa - - - -

* Rain since midnight (hover to see other rain measurements)
** Current wind speed in m/s (hover to see current wind gust speed)